Regional Weather Roundup
Issued by NWS

Current Version | Previous Version | Text Only | Print | Product List | Glossary On
Versions: 1 2 3 4 5 6 7 8 9 10 11 12 13 14 15 16 17 18 19 20 21 22 23 24 25 26 27 28 29 30 31 32 33 34 35 36 37 38 39 40 41 42 43 44 45 46 47 48 49 50
272
ASUS45 KBOI 191610
RWRID

IDAHO REGIONAL WEATHER ROUNDUP
NATIONAL WEATHER SERVICE BOISE ID
1000 AM MDT MON APR 19 2021

NOTE: "FAIR" INDICATES FEW OR NO CLOUDS BELOW 12000 FEET
WITH NO SIGNIFICANT WEATHER AND/OR OBSTRUCTIONS TO VISIBILITY

IDZ012-014-191700-
SOUTHWEST IDAHO


CITY           SKY/WX    TMP DP  RH WIND       PRES   REMARKS
BOISE          MOSUNNY   59  32  36 NW20      30.02F
CALDWELL       MOSUNNY   60  33  36 W26G33    30.04F
MOUNTAIN HOME  SUNNY     60  28  30 NW33G39   30.00F
$$

IDZ016-017-191700-
SOUTHCENTRAL IDAHO


CITY           SKY/WX    TMP DP  RH WIND       PRES   REMARKS
BURLEY         LGT RAIN  56  29  35 W23G45    29.93F
JEROME         SUNNY     56  29  35 W36G52    29.96F
TWIN FALLS     SUNNY     56  28  34 W35G47    29.97F
$$

IDZ019>023-191700-
SOUTHEAST IDAHO


CITY           SKY/WX    TMP DP  RH WIND       PRES   REMARKS
IDAHO FALLS    PTSUNNY   40  23  50 NE20      29.98S WCI  30
POCATELLO      SUNNY     48  27  44 VRB3      29.96S
REXBURG        CLOUDY    38  18  44 N18G30    30.00R WCI  28
$$

IDZ006-010-011-018-031-032-191700-
CENTRAL IDAHO MOUNTAINS


CITY           SKY/WX    TMP DP  RH WIND       PRES   REMARKS
MCCALL         PTSUNNY   44  28  53 NW8       30.04R
HAILEY         MOSUNNY   52  21  30 NW17G28   29.94F
STANLEY          N/A     44  26  49 N10       29.99F
SALMON         LGT SNOW  32  27  80 NE16      30.17R WCI  21
CHALLIS        CLOUDY    42  27  55 N17G24    29.99S
$$

IDZ002-004-006-007-026-191700-
NORTHERN IDAHO


CITY           SKY/WX    TMP DP  RH WIND       PRES   REMARKS
LEWISTON       CLOUDY    50  24  36 N5        30.28R
LOWELL           N/A     43  36  76 S6        30.28R
COEUR D`ALENE  SUNNY     43  14  31 NE18      30.36S
MULLAN PASS    SUNNY     22  16  78 VRB5      30.21R WCI  16
$$




USA.gov is the U.S. government's official web portal to all federal, state and local government web resources and services.